Wind_Speed
7 10 5 4 5 6 6 8 9 8 9 10 11 13 13 14 16 19 22 22 25 28 27 28 25 26 22 16 16 17 20 14 10 18 29 18 13 13 13 11 12 12 17
8 7 5 5 1 5 10 8 8 3 7 10 12 13 15 16 18 17 21 23 27 26 28 34 30 23 26 25 19 16 19 23 18 19 18 24 12 11 12 10 17 14 12
11 12 9 6 3 3 6 6 6 9 10 10 13 15 15 15 17 18 22 25 27 29 29 27 33 31 28 26 24 21 18 21 27 20 23 20 13 13 16 18 14 16 17
9 9 8 4 6 8 12 12 13 14 14 14 16 16 18 19 19 21 24 22 25 28 30 32 31 30 30 34 33 27 21 22 18 23 22 20 17 18 21 20 22 23 23
3 3 4 5 7 10 13 15 15 16 17 17 20 20 20 21 21 21 18 15 19 24 28 29 30 30 30 32 30 32 28 26 22 21 19 20 21 21 22 22 26 21 22
3 5 6 7 8 9 11 13 16 19 21 22 21 21 22 22 23 25 27 24 20 22 24 27 25 21 24 28 34 35 29 28 27 23 21 22 24 25 29 27 18 9 2
4 7 8 10 11 13 15 17 17 19 21 24 24 22 22 23 24 27 29 28 21 22 21 23 24 21 20 22 30 31 35 37 35 30 27 29 29 23 18 20 18 17 12
8 9 12 13 14 15 16 17 19 21 23 24 24 24 24 24 26 27 28 28 24 23 23 20 21 19 20 19 19 23 27 33 38 42 38 35 33 39 30 23 17 18 19
13 13 13 14 14 14 17 19 21 23 25 25 25 25 26 26 27 26 28 28 24 24 26 23 22 24 21 24 23 18 18 21 25 28 32 35 38 36 36 29 28 23 14
16 15 14 15 16 18 20 23 27 28 28 27 28 28 29 30 28 24 24 28 27 25 25 26 25 27 28 24 24 22 17 19 18 22 27 27 31 39 42 41 37 26 20
16 14 15 17 19 21 25 24 25 24 25 27 26 26 25 26 27 30 35 34 30 29 24 23 23 26 28 27 24 26 27 26 22 20 23 20 26 32 33 35 40 36 29
21 21 20 19 21 25 26 27 26 26 27 25 26 25 24 25 27 31 38 38 39 33 29 26 27 26 21 17 21 23 26 30 27 24 24 24 29 22 30 35 32 34 38
20 20 21 19 19 23 23 25 24 23 25 24 21 20 21 24 22 20 29 24 39 38 28 26 26 28 28 23 21 21 20 24 25 19 23 28 33 37 30 23 28 33 36
22 21 21 20 22 24 23 24 23 21 23 22 22 19 21 18 19 22 15 7 18 19 20 16 18 26 27 26 24 25 26 27 23 23 25 26 24 24 25 30 25 32 24
20 21 22 22 22 25 26 23 25 26 26 27 25 22 21 22 22 22 31 35 31 26 24 24 23 22 22 22 23 23 23 26 26 28 25 24 26 24 25 30 30 27 26
20 21 21 24 24 25 25 28 30 30 31 32 31 29 29 28 33 37 37 38 40 35 24 18 20 20 22 21 22 22 23 24 27 26 25 24 24 21 25 23 28 23 22
21 23 23 25 25 23 24 24 24 28 31 30 30 28 22 28 32 35 36 38 35 36 24 22 24 24 22 21 23 24 22 23 27 27 25 22 24 26 27 26 25 24 25
23 24 23 22 23 25 25 25 26 25 25 26 25 23 24 27 34 35 35 33 31 26 25 25 28 26 25 25 23 24 26 25 24 24 25 26 26 24 22 21 22 25 21
23 24 25 25 27 27 28 27 26 25 25 26 28 29 28 29 32 33 36 32 27 25 25 27 28 27 27 28 28 27 27 26 25 24 24 25 25 24 25 25 23 23 27
25 27 30 26 27 28 26 23 23 24 23 23 24 27 26 24 24 25 25 21 24 26 27 29 30 27 28 29 29 30 28 28 27 26 24 25 26 26 24 25 25 24 22
27 30 32 29 27 23 21 23 23 26 26 26 26 26 32 30 27 30 31 29 28 29 28 27 28 29 28 28 29 28 29 28 27 27 25 25 25 25 27 27 27 25 22
31 30 28 25 28 28 25 25 25 24 28 25 26 28 30 30 30 30 29 29 30 32 29 31 32 30 27 27 29 29 27 26 27 26 27 26 26 26 25 29 29 23 22
27 27 29 28 28 28 26 26 21 24 27 24 26 27 26 26 25 23 25 28 30 32 32 28 29 28 35 27 26 31 32 31 30 28 29 28 28 27 22 25 21 23 22
28 27 28 29 27 29 26 23 23 25 24 25 25 23 24 24 24 25 27 27 31 29 31 30 28 29 32 34 37 28 31 39 35 35 34 30 32 31 28 23 23 24 23
27 28 29 28 28 25 25 23 22 22 22 22 23 22 23 23 25 26 26 29 27 30 21 27 28 26 24 30 34 33 28 17 26 35 34 21 18 18 20 20 21 21 25
28 29 29 28 26 25 24 22 22 21 22 22 22 23 24 21 25 26 23 21 23 27 28 24 22 26 32 32 34 36 34 23 25 20 20 25 23 17 19 21 22 23 24
Wind_Direction
154 138 145 166 220 225 249 261 269 288 313 312 310 308 298 287 266 261 251 244 243 242 243 248 240 233 230 239 241 254 261 274 236 221 219 224 205 203 184 189 217 243 249
110 117 150 159 209 239 245 269 278 321 324 320 319 312 298 293 281 277 270 261 251 246 248 248 250 245 239 243 239 230 242 247 274 284 231 225 200 228 243 247 238 238 260
161 183 143 148 215 282 13 356 331 317 307 307 304 308 308 307 298 294 275 270 266 257 247 241 243 242 238 238 240 234 226 239 249 256 270 280 285 260 241 240 238 237 249
51 44 44 21 342 337 329 324 320 314 307 300 297 292 295 297 296 294 287 284 276 268 260 252 246 243 241 242 242 240 237 236 241 246 250 256 265 270 270 233 229 233 238
59 14 341 322 304 300 300 299 301 301 296 296 296 293 291 289 287 288 309 297 292 287 285 270 258 255 250 249 243 245 244 245 237 238 248 243 245 248 258 252 227 234 235
319 312 317 319 305 292 289 290 288 287 286 284 283 285 286 284 284 288 296 305 302 301 290 280 271 274 268 265 260 250 246 242 243 241 241 244 245 243 251 257 257 247 18
288 284 286 285 281 280 280 278 277 277 277 273 272 273 276 281 284 285 288 296 291 288 287 289 281 270 271 277 266 265 259 252 249 247 245 248 256 255 261 258 256 252 206
284 286 282 277 275 277 281 285 289 287 280 277 270 265 268 273 276 280 286 291 291 281 277 275 265 267 264 275 274 267 266 262 255 245 245 251 254 260 264 266 274 277 272
282 286 292 291 293 301 302 300 298 294 289 282 275 270 265 266 269 273 281 284 281 278 278 268 264 264 259 269 264 266 267 269 266 259 252 252 255 254 258 262 261 257 261
305 307 309 306 302 300 299 300 296 289 283 280 276 272 269 268 270 272 277 280 275 271 270 270 262 265 266 260 253 248 260 265 276 280 275 266 260 258 256 254 256 254 241
333 326 317 307 300 297 297 296 295 295 295 290 285 279 275 273 274 275 276 270 265 268 265 266 269 261 258 255 246 250 257 263 269 275 271 267 264 259 259 253 246 241 241
323 313 305 301 303 300 299 297 294 292 287 284 282 277 272 270 270 273 275 270 265 256 260 259 262 272 282 256 241 251 260 255 260 265 260 264 260 255 249 253 240 241 237
328 321 318 313 309 306 304 299 293 290 286 280 284 282 285 281 274 289 306 310 271 265 262 268 268 262 267 263 261 259 258 243 249 247 247 247 253 268 249 253 256 253 251
329 316 313 313 311 308 305 301 299 301 296 296 293 296 302 307 308 298 280 319 325 334 321 319 292 273 268 268 257 250 238 240 234 236 242 252 256 246 243 237 239 258 248
328 320 316 313 310 307 302 296 294 290 290 290 289 288 289 287 284 285 293 299 300 303 304 312 305 297 278 250 234 236 234 238 239 241 242 246 250 242 234 234 234 233 223
318 312 308 304 303 299 295 296 293 285 291 294 293 291 285 280 284 285 285 287 294 295 298 291 280 271 261 252 242 233 238 242 241 245 239 240 244 250 245 241 235 231 222
317 317 317 311 303 299 298 293 292 297 295 290 291 287 278 287 291 289 290 279 279 284 281 270 256 249 251 244 243 245 242 242 247 245 252 251 248 248 247 238 237 232 227
315 314 310 305 305 301 299 297 297 295 297 300 298 291 288 285 294 290 286 283 275 271 260 255 252 249 244 246 247 244 244 246 246 241 243 241 241 237 239 245 231 233 232
319 311 303 300 297 295 292 290 290 291 291 291 294 292 292 296 294 293 286 273 259 258 252 251 245 241 241 243 244 244 242 235 236 244 241 237 237 235 238 236 238 230 219
310 313 312 305 302 298 292 294 298 293 289 290 288 288 291 291 289 291 284 277 261 249 248 248 250 251 236 236 238 241 244 234 233 241 242 238 234 230 232 233 236 238 243
317 314 311 305 304 301 310 307 304 302 296 292 287 289 288 286 286 281 280 278 271 258 249 249 251 247 248 240 236 242 245 238 231 232 241 238 231 229 233 237 234 234 243
319 313 313 315 311 301 300 291 292 295 293 287 293 290 291 292 284 273 266 268 270 270 265 253 249 250 250 244 234 237 240 232 225 226 232 241 240 237 230 237 239 236 234
322 322 316 312 309 305 298 293 288 297 290 292 295 291 291 290 293 301 292 280 273 272 269 268 246 249 249 252 246 236 235 236 235 231 230 230 240 242 246 245 239 229 241
330 321 319 316 313 311 305 301 297 295 292 294 292 294 294 296 295 298 301 296 307 275 267 267 262 261 252 251 247 257 235 234 232 232 233 227 224 225 228 252 250 249 248
331 327 325 321 319 312 309 305 301 298 295 296 294 294 297 297 298 300 303 311 314 311 300 279 271 267 263 248 254 252 259 261 244 235 250 258 228 233 245 247 245 249 243
338 330 325 323 318 316 311 307 304 302 301 300 298 298 296 298 298 298 302 307 307 308 311 309 298 277 279 268 267 258 247 246 235 241 231 220 241 246 248 249 248 244 238
Height
789 792 795 798 799 800 800 800 801 803 804 805 803 802 803 804 806 804 802 802 801 801 801 801 803 805 806 806 806 807 808 807 807 807 807 809 808 810 811 811 810 810 810
790 793 796 798 799 799 798 798 799 801 802 803 803 803 802 800 799 798 796 794 795 796 796 797 798 800 801 804 804 804 806 806 807 806 806 807 806 806 807 806 806 807 807
792 792 794 797 797 798 798 798 798 798 799 800 801 800 799 797 794 792 791 790 790 790 791 791 790 793 793 794 795 798 800 803 802 803 802 800 801 802 802 802 801 802 802
791 793 795 797 798 798 798 798 798 797 797 797 797 797 795 793 791 789 786 785 783 783 784 784 784 784 785 785 787 790 793 794 796 797 798 797 797 798 798 796 796 795 795
795 796 797 797 797 798 798 798 798 797 796 795 794 793 792 790 788 786 784 783 781 779 778 778 778 778 779 779 780 781 784 786 788 789 791 793 792 793 793 791 789 788 788
794 795 795 796 796 796 797 797 796 795 794 793 791 790 788 787 785 783 782 780 778 776 774 773 773 773 775 775 777 777 778 779 781 783 783 787 787 787 786 785 784 784 789
793 793 794 794 794 794 794 793 792 791 789 787 786 784 783 782 780 779 778 777 775 773 772 770 768 768 770 770 771 770 772 774 775 776 777 779 780 781 782 780 779 779 782
790 790 790 790 790 790 790 789 788 786 784 782 779 778 777 776 775 773 773 772 770 769 767 766 765 764 764 764 765 765 765 765 767 769 771 771 773 775 776 778 776 774 775
786 786 786 786 785 785 785 784 783 781 778 775 773 771 770 769 769 768 767 766 764 763 761 760 759 758 758 759 758 758 758 758 759 762 764 765 766 767 770 772 771 772 772
783 783 783 783 782 781 780 779 777 774 771 769 766 764 762 762 762 761 761 759 756 755 754 753 752 751 750 750 751 752 753 754 755 755 755 756 757 757 760 763 765 766 768
780 779 778 778 777 776 774 772 770 767 765 762 759 757 755 755 753 753 752 751 749 747 747 746 745 743 742 743 743 745 745 747 749 750 750 749 748 747 748 751 752 756 760
779 777 775 773 772 771 769 766 764 762 759 754 751 748 746 745 744 744 741 739 738 739 738 738 737 737 736 737 737 737 739 741 743 744 744 742 739 737 739 739 745 745 748
776 774 772 769 767 767 764 761 758 755 752 748 744 742 740 740 738 737 736 730 728 729 733 733 733 732 732 731 730 730 732 734 735 735 734 731 728 726 729 733 736 739 742
775 773 770 766 763 761 759 756 752 750 747 744 741 738 737 735 734 733 730 728 728 727 728 727 726 726 726 725 725 725 725 727 727 726 725 723 723 724 724 724 725 730 736
774 771 768 765 761 757 753 750 747 744 743 739 736 733 731 730 729 728 725 723 724 724 723 720 719 718 717 717 717 717 718 719 719 718 718 717 716 717 718 719 720 723 725
774 769 765 762 757 753 747 740 737 735 733 731 729 726 723 723 721 720 719 717 714 715 715 715 713 712 710 709 709 710 710 710 710 710 709 709 710 710 711 713 716 717 717
772 768 763 758 753 748 743 737 731 725 724 721 719 716 715 715 713 711 709 710 710 708 705 704 703 701 700 700 700 701 701 701 702 701 701 701 702 703 703 707 705 708 708
770 766 761 755 750 745 740 735 730 725 719 714 711 709 707 706 704 700 700 699 698 697 694 694 692 690 690 690 690 690 692 692 693 693 693 693 694 694 696 696 697 697 698
766 761 756 751 745 740 734 729 724 720 716 710 706 703 702 699 696 692 689 686 686 685 683 680 679 678 678 678 679 680 680 681 683 684 684 685 685 687 687 687 688 689 688
761 756 751 745 739 733 727 722 718 714 710 706 702 697 695 694 689 685 681 678 676 673 671 669 667 666 666 667 668 669 669 670 673 674 675 675 676 678 677 677 680 681 681
757 750 745 738 732 727 722 718 715 711 706 701 696 693 691 689 684 680 675 670 667 663 661 659 658 657 657 656 658 659 660 660 662 664 666 666 667 668 668 670 671 671 673
753 746 739 734 728 723 718 713 709 705 700 693 689 686 684 680 675 668 664 660 657 654 651 649 648 647 647 646 648 649 650 650 652 654 655 657 658 658 659 660 661 662 664
749 742 736 729 723 717 710 705 701 698 693 688 684 680 676 671 665 660 655 650 647 643 641 639 638 637 637 637 638 638 639 639 641 643 645 646 649 650 650 652 653 656 658
747 739 732 725 718 712 705 699 695 691 687 682 678 673 669 664 658 653 648 644 638 633 630 629 628 627 627 627 627 628 626 627 630 632 633 635 638 640 642 646 649 651 652
744 736 729 721 713 706 700 694 690 685 680 676 671 667 663 658 652 647 643 637 631 629 623 620 620 619 618 618 618 619 620 621 622 622 623 632 633 632 636 639 642 644 646
741 734 725 717 709 702 696 690 684 680 675 670 666 662 658 653 647 642 638 636 630 624 620 616 614 612 611 610 608 608 611 613 616 616 621 625 626 623 627 631 635 637 637